| time (UTC) | temp C | wind direction | speed KPH | gust KPH | rain 1hr cm | rain 24hr cm | rain mn cm | humidity % | barometer mb |
| 20260506144516 | 8 | 23 | 1.6 | 8.0 | 0.08 | 0.48 | 0.48 | 86 | 1007.9 |
| 20260506143104 | 8 | 11 | 0.0 | 6.4 | 0.05 | 0.46 | 0.46 | 86 | 1007.8 |
| 20260506141532 | 8 | 5 | 1.6 | 8.0 | 0.05 | 0.43 | 0.43 | 85 | 1007.9 |
| 20260506140003 | 8 | 344 | 1.6 | 14.5 | 0.05 | 0.43 | 0.43 | 85 | 1007.8 |
| 20260506134542 | 8 | 26 | 3.2 | 9.7 | 0.05 | 0.41 | 0.41 | 84 | 1007.9 |
| 20260506133015 | 8 | 20 | 6.4 | 14.5 | 0.08 | 0.41 | 0.41 | 85 | 1007.9 |
| 20260506131552 | 8 | 336 | 1.6 | 9.7 | 0.10 | 0.38 | 0.38 | 86 | 1007.9 |
| 20260506130030 | 8 | 355 | 1.6 | 9.7 | 0.10 | 0.36 | 0.36 | 85 | 1007.8 |
| 20260506124555 | 8 | 338 | 3.2 | 9.7 | 0.13 | 0.33 | 0.33 | 86 | 1007.7 |
| 20260506123034 | 8 | 347 | 0.0 | 16.1 | 0.13 | 0.33 | 0.33 | 85 | 1007.7 |
| 20260506121505 | 8 | 5 | 3.2 | 16.1 | 0.13 | 0.28 | 0.28 | 85 | 1007.6 |
| 20260506120041 | 8 | 27 | 4.8 | 12.9 | 0.13 | 0.25 | 0.25 | 84 | 1007.6 |
| 20260506114513 | 8 | 33 | 3.2 | 14.5 | 0.10 | 0.23 | 0.23 | 83 | 1007.3 |
| 20260506073109 | 10 | 69 | 12.9 | 25.7 | 0.00 | 0.13 | 0.13 | 71 | 1006.2 |
| 20260506071535 | 9 | 82 | 8.0 | 22.5 | 0.00 | 0.13 | 0.13 | 72 | 1006.0 |
| 20260506061552 | 8 | 329 | 3.2 | 12.9 | 0.00 | 0.13 | 0.13 | 78 | 1006.0 |
| 20260506044520 | 8 | 32 | 4.8 | 16.1 | 0.03 | 0.13 | 0.13 | 78 | 1006.2 |
| 20260506043052 | 8 | 23 | 0.0 | 4.8 | 0.03 | 0.13 | 0.13 | 83 | 1006.2 |
| 20260506041528 | 8 | 346 | 0.0 | 3.2 | 0.03 | 0.13 | 0.13 | 85 | 1006.2 |
| 20260506040105 | 8 | 23 | 0.0 | 4.8 | 0.00 | 0.10 | 0.10 | 84 | 1006.2 |
| 20260506034537 | 8 | 5 | 0.0 | 3.2 | 0.00 | 0.20 | 0.10 | 84 | 1006.2 |
| 20260506033011 | 8 | 360 | 0.0 | 4.8 | 0.03 | 0.20 | 0.10 | 85 | 1006.2 |
| 20260506031558 | 8 | 5 | 0.0 | 8.0 | 0.03 | 0.20 | 0.10 | 83 | 1006.3 |
| 20260506030022 | 8 | 19 | 3.2 | 9.7 | 0.03 | 0.20 | 0.10 | 81 | 1006.4 |
| 20260506024558 | 8 | 15 | 0.0 | 9.7 | 0.05 | 0.30 | 0.10 | 82 | 1006.4 |
| 20260506023034 | 8 | 23 | 1.6 | 9.7 | 0.08 | 0.28 | 0.08 | 84 | 1006.5 |
| 20260506021510 | 8 | 347 | 1.6 | 9.7 | 0.08 | 0.28 | 0.08 | 84 | 1006.6 |
| 20260506020043 | 8 | 12 | 0.0 | 9.7 | 0.08 | 0.28 | 0.08 | 83 | 1006.7 |
| 20260506014517 | 9 | 30 | 1.6 | 11.3 | 0.05 | 0.25 | 0.05 | 82 | 1006.7 |
| 20260506013052 | 10 | 30 | 4.8 | 16.1 | 0.00 | 0.23 | 0.00 | 79 | 1006.8 |
| 20260506011528 | 10 | 22 | 6.4 | 17.7 | 0.00 | 0.23 | 0.00 | 76 | 1006.8 |
| 20260506010003 | 10 | 30 | 4.8 | 14.5 | 0.00 | 0.23 | 0.00 | 76 | 1006.8 |
| 20260506004538 | 10 | 355 | 1.6 | 14.5 | 0.00 | 0.61 | 0.00 | 76 | 1006.9 |
| 20260506003014 | 10 | 39 | 6.4 | 14.5 | 0.00 | 0.61 | 0.00 | 77 | 1007.0 |
| 20260506001548 | 10 | 31 | 3.2 | 14.5 | 0.00 | 0.61 | 0.00 | 78 | 1007.0 |
| 20260506000023 | 10 | 42 | 3.2 | 9.7 | 0.00 | 0.61 | 0.00 | 79 | 1007.1 |
| 20260505234606 | 10 | 26 | 4.8 | 9.7 | 0.00 | 0.94 | 0.00 | 79 | 1007.4 |
| 20260505233031 | 10 | 12 | 3.2 | 9.7 | 0.00 | 0.94 | 0.00 | 79 | 1007.4 |
| 20260505231507 | 10 | 5 | 1.6 | 3.2 | 0.00 | 0.94 | 0.00 | 86 | 1007.4 |
| 20260505230042 | 10 | 348 | 0.0 | 3.2 | 0.00 | 0.94 | 0.00 | 87 | 1007.6 |
| 20260505224519 | 10 | 22 | 0.0 | 8.0 | 0.00 | 1.57 | 0.00 | 86 | 1007.5 |
| 20260505223056 | 10 | 24 | 0.0 | 4.8 | 0.00 | 1.57 | 0.00 | 88 | 1007.7 |
| 20260505221530 | 10 | 342 | 0.0 | 4.8 | 0.00 | 1.57 | 0.00 | 89 | 1007.7 |
| 20260505220004 | 10 | 342 | 1.6 | 4.8 | 0.00 | 1.57 | 0.00 | 89 | 1007.7 |
| 20260505214549 | 10 | 344 | 0.0 | 3.2 | 0.00 | 1.65 | 1.57 | 89 | 1007.9 |
| 20260505213017 | 10 | 340 | 0.0 | 4.8 | 0.00 | 1.65 | 1.57 | 89 | 1008.0 |
| 20260505211609 | 10 | 338 | 0.0 | 3.2 | 0.00 | 1.65 | 1.57 | 89 | 1008.0 |
| 20260505210031 | 10 | 337 | 0.0 | 1.6 | 0.00 | 1.65 | 1.57 | 88 | 1008.1 |
| 20260505204507 | 10 | 337 | 0.0 | 3.2 | 0.00 | 1.65 | 1.57 | 89 | 1008.0 |
| 20260505203044 | 10 | 338 | 0.0 | 1.6 | 0.00 | 1.65 | 1.57 | 89 | 1008.1 |
| 20260505201518 | 10 | 340 | 0.0 | 1.6 | 0.00 | 1.65 | 1.57 | 89 | 1008.0 |
| 20260505200055 | 10 | 351 | 1.6 | 6.4 | 0.00 | 1.65 | 1.57 | 88 | 1008.1 |
| 20260505194529 | 11 | 5 | 0.0 | 8.0 | 0.00 | 1.65 | 1.57 | 87 | 1008.0 |
| 20260505193005 | 11 | 345 | 3.2 | 8.0 | 0.00 | 1.65 | 1.57 | 86 | 1008.0 |
| 20260505191544 | 11 | 344 | 0.0 | 4.8 | 0.00 | 1.65 | 1.57 | 85 | 1007.9 |
| 20260505190031 | 11 | 15 | 0.0 | 4.8 | 0.00 | 1.65 | 1.57 | 84 | 1007.7 |
| 20260505184557 | 11 | 342 | 1.6 | 8.0 | 0.00 | 1.65 | 1.57 | 84 | 1007.7 |
| 20260505183038 | 11 | 355 | 1.6 | 8.0 | 0.00 | 1.65 | 1.57 | 83 | 1007.8 |
| 20260505181509 | 11 | 349 | 3.2 | 9.7 | 0.00 | 1.65 | 1.57 | 84 | 1007.7 |
| 20260505180046 | 11 | 360 | 1.6 | 14.5 | 0.00 | 1.65 | 1.57 | 84 | 1007.7 |
| 20260505174521 | 11 | 334 | 3.2 | 12.9 | 0.00 | 1.65 | 1.57 | 82 | 1007.7 |
| 20260505173058 | 11 | 338 | 3.2 | 16.1 | 0.00 | 1.65 | 1.57 | 82 | 1007.8 |
| 20260505171535 | 11 | 336 | 4.8 | 14.5 | 0.00 | 1.65 | 1.57 | 82 | 1008.0 |
| 20260505170015 | 11 | 329 | 4.8 | 14.5 | 0.00 | 1.65 | 1.57 | 81 | 1008.0 |
| 20260505164610 | 11 | 338 | 4.8 | 14.5 | 0.00 | 1.65 | 1.57 | 80 | 1008.0 |
| 20260505163022 | 12 | 336 | 3.2 | 8.0 | 0.00 | 1.65 | 1.57 | 78 | 1008.0 |
| 20260505161615 | 12 | 15 | 3.2 | 12.9 | 0.00 | 1.65 | 1.57 | 77 | 1008.0 |
| 20260505153040 | 12 | 17 | 0.0 | 8.0 | 0.00 | 1.65 | 1.57 | 78 | 1008.4 |
| 20260505151510 | 12 | 5 | 1.6 | 9.7 | 0.00 | 1.65 | 1.57 | 77 | 1008.5 |